Location: Unspecified
(0.0000°N, 0.0000°E)
Time: 21:09:42
(UTC+00:00)

STARLINK-1623 - Visible Passes

Search period start: 12 January 2025 00:00
Search period end: 22 January 2025 00:00
Orbit: 546 x 548 km, 53.1° (Epoch: 12 January)

Date Brightness Start Highest point End Pass type
(mag) Time Alt. Az. Time Alt. Az. Time Alt. Az.
12 Jan 5.5 04:21:42 21° NNE 04:22:48 23° NE 04:26:06 10° ESE visible
13 Jan 4.8 04:16:25 36° NE 04:16:28 36° NE 04:20:16 10° ESE visible
14 Jan 4.6 04:11:03 45° ESE 04:11:03 45° ESE 04:14:10 10° SE visible
15 Jan 5.2 04:05:37 31° SSE 04:05:37 31° SSE 04:07:51 10° SSE visible
16 Jan 5.9 04:00:04 19° SSE 04:00:04 19° SSE 04:01:19 10° SSE visible
17 Jan 6.5 03:54:25 11° S 03:54:25 11° S 03:54:34 10° S visible
